Location: M?digepalle
(16.1753°N, 80.3496°E)
Time: 08:21:37
(UTC+00:00)

Cosmos 1340 - Pass Details

Date: 29 October 2020
Orbit: 501 x 504 km, 81.2° (Epoch: 28 November)

Event Time Altitude Azimuth Distance (km) Brightness Sun altitude
Rises 12:44:36 0° 2° (N) 2,596 6.1 -9.0°
Reaches altitude 10° 12:46:47 10° 9° (N) 1,711 5.1 -9.5°
Maximum altitude 12:50:24 46° 83° (E) 683 2.9 -10.4°
Drops below altitude 10° 12:54:00 10° 158° (SSE) 1,708 5.2 -11.2°
Sets 12:56:10 0° 164° (SSE) 2,590 6.2 -11.7°
